Location: Newark
(46.1292°N, 1.0086°W)
Time: 20:47:53
(UTC+00:00)

Transit 4A - Pass Details

Date: 25 November 2019
Orbit: 870 x 975 km, 66.8° (Epoch: 14 December)

Event Time Altitude Azimuth Distance (km) Brightness Sun altitude
Exits shadow 02:48:05 12° 47° (NE) 2,383 10.5 -45.9°
Drops below altitude 10° 02:49:08 10° 56° (ENE) 2,545 10.7 -45.8°
Sets 02:52:54 0° 81° (E) 3,468 11.6 -45.1°
